Cortez, CO

7:20 PM MDT on September 25, 2017 (GMT -0600)
Cortez Municipal

Weather History for KCEZ - April, 2012

Change the Weather History Date:

Sunday, April 29, 2012

  Actual Average Record
Temperature  
Mean Temperature 49 °F 51 °F  
Max Temperature 68 °F 69 °F 80 °F (2013)
Min Temperature 29 °F 33 °F 24 °F (2017)
Degree Days  
Heating Degree Days 16 14  
Month to date heating degree days 436 527  
Since 1 July heating degree days 5701 6057  
Cooling Degree Days 0 0  
Month to date cooling degree days 0 0  
Year to date cooling degree days 0 0  
Moisture  
Dew Point 15 °F    
Average Humidity 36    
Maximum Humidity 63    
Minimum Humidity 8    
Precipitation  
Precipitation 0.00 in 0.03 in 0.23 in (2004)
Month to date precipitation 0.20 1.11  
Year to date precipitation 2.41 4.19  
Sea Level Pressure  
Sea Level Pressure 29.91 in    
Wind  
Wind Speed 7 mph (NNE)    
Max Wind Speed 21 mph    
Max Gust Speed 26 mph    
Visibility 10 miles    
Events      
T = Trace of Precipitation, MM = Missing Value Source: NWS Daily Summary

Daily Weather History Graph

Daily Weather History Graph

Search for Another Location

Airport or City:

Trip Planner

Search our weather history database for the weather conditions in past years. The results will help you decide how hot, cold, wet, or windy it might be!

Date:

Astronomy

Apr. 29, 2012 Rise Set
Actual Time 6:21 AM MDT 8:02 PM MDT
Civil Twilight 5:53 AM MDT 8:30 PM MDT
Nautical Twilight 5:19 AM MDT 9:04 PM MDT
Astronomical Twilight 4:44 AM MDT 9:40 PM MDT
Moon 1:07 PM MDT (4/29) 2:04 AM MDT (4/29)
Length of Visible Light 14h 37m
Length of Day
13h 41m
First Quarter, 54% of the Moon is Illuminated
Apr 29
First Quarter
May 5
Full
May 12
Last Quarter
May 20
New
May 28
First Quarter

Hourly Weather History & Observations

Time (MDT) Temp. Windchill Dew Point Humidity Pressure Visibility Wind Dir Wind Speed Gust Speed Precip Events Conditions
12:53 AM 36.0 °F 33.3 °F 18.0 °F 48% 29.87 in 10.0 mi NE 3.5 mph - N/A   Clear
1:53 AM 34.0 °F 31.0 °F 18.0 °F 52% 29.86 in 10.0 mi ENE 3.5 mph - N/A   Clear
2:53 AM 33.1 °F 26.9 °F 16.0 °F 50% 29.86 in 10.0 mi East 6.9 mph - N/A   Clear
3:53 AM 30.9 °F 27.5 °F 18.0 °F 59% 29.87 in 10.0 mi NNE 3.5 mph - N/A   Partly Cloudy
4:53 AM 30.9 °F 27.5 °F 19.0 °F 61% 29.87 in 10.0 mi East 3.5 mph - N/A   Clear
5:53 AM 30.9 °F 25.2 °F 19.0 °F 61% 29.90 in 10.0 mi East 5.8 mph - N/A   Clear
6:53 AM 30.0 °F 26.5 °F 18.0 °F 61% 29.94 in 10.0 mi East 3.5 mph - N/A   Partly Cloudy
7:53 AM 37.9 °F 35.5 °F 21.0 °F 51% 29.94 in 10.0 mi East 3.5 mph - N/A   Partly Cloudy
8:53 AM 46.9 °F - 21.9 °F 37% 29.93 in 10.0 mi Calm Calm - N/A   Clear
9:53 AM 55.9 °F - 21.0 °F 26% 29.93 in 10.0 mi Variable 4.6 mph - N/A   Clear
11:53 AM 64.9 °F - 19.0 °F 17% 29.91 in 10.0 mi Variable 4.6 mph - N/A   Clear
12:53 PM 64.9 °F - 18.0 °F 16% 29.91 in 10.0 mi West 8.1 mph - N/A   Partly Cloudy
1:53 PM 66.9 °F - 15.1 °F 14% 29.90 in 10.0 mi West 12.7 mph 20.7 mph N/A   Clear
2:53 PM 66.9 °F - 14.0 °F 13% 29.89 in 10.0 mi WNW 13.8 mph 24.2 mph N/A   Clear
3:53 PM 66.9 °F - 12.9 °F 12% 29.89 in 10.0 mi WNW 16.1 mph 23.0 mph N/A   Clear
4:53 PM 66.9 °F - 12.0 °F 12% 29.89 in 10.0 mi NW 16.1 mph 23.0 mph N/A   Clear
5:53 PM 66.0 °F - 3.9 °F 9% 29.90 in 10.0 mi West 13.8 mph - N/A   Clear
6:53 PM 64.9 °F - 6.1 °F 10% 29.91 in 10.0 mi West 6.9 mph - N/A   Clear
7:53 PM 59.0 °F - 8.1 °F 13% 29.93 in 10.0 mi West 6.9 mph - N/A   Clear
9:53 PM 39.9 °F 34.5 °F 14.0 °F 35% 29.97 in 10.0 mi ENE 8.1 mph - N/A   Clear
10:53 PM 43.0 °F 41.3 °F 12.9 °F 30% 29.96 in 10.0 mi Variable 3.5 mph - N/A   Clear
11:53 PM 35.1 °F 30.1 °F 12.0 °F 39% 29.98 in 10.0 mi East 5.8 mph - N/A   Clear